Tracking 19176 objects as of 27-May-2018
HD Live streaming from Space Station
objects crossing your sky now

S80/T

Track S80/T now!
10-day predictions
S80/T is classified as:


NORAD ID: 22078
Int'l Code: 1992-052C
Perigee: 1,309.9 km
Apogee: 1,333.0 km
Inclination: 66.1 °
Period: 111.9 minutes
Semi major axis: 7692 km
RCS: 0.3013 m2 (medium)
Launch date: August 10, 1992
Source: France (FR)
Launch site: FRENCH GUIANA (FRGUI)
aabbcc
Your satellite tracking list
Your tracking list is empty




NASA's NSSDC Master Catalog

Two Line Element Set (TLE):
1 22078U 92052C   18146.86653287 -.00000047 +00000-0 +59069-4 0  9997
2 22078 066.0851 316.8182 0015024 238.8538 121.1007 12.86788949211711
Source of the keplerian elements: AFSPC